Hourly Data Report for January 16, 2017

All times are specified in Local Standard Time (LST). Add 1 hour to adjust for Daylight Saving Time where and when it is observed.

ST LEONARD CS
NEW BRUNSWICK

47°09'28.050" N
67°49'55.014" W
245.00 m
810I001
71019
WIY

Download Data

Hourly Data (January 2017)
Hourly Data Report for January 16, 2017
Temp Definition
°C
Dew Point Temp Definition
°C
Rel Hum Definition
%
Wind Dir Definition
10's deg

Wind Spd Definition
km/h
Visibility Definition
km
Stn Press Definition
kPa
Hmdx Definition


Wind Chill Definition


Weather Definition


TIME
00:00 -24.9 -26.7 85 13 7   99.69   -31 LegendNANA
01:00 -25.8 -28.2 80 0 1   99.66   -27 LegendNANA
02:00 -26.2 -28.5 81 10 5   99.63   -31 LegendNANA
03:00 -24.1 -26.1 84 18 2   99.65   -26 LegendNANA
04:00 -25.7 -27.9 81 13 5   99.63   -31 LegendNANA
05:00 -25.0 -26.8 85 15 9   99.54   -33 LegendNANA
06:00 -22.8 -24.8 84 14 7   99.52   -29 LegendNANA
07:00 -21.5 -23.5 83 15 10   99.43   -29 LegendNANA
08:00 -20.5 -22.6 84 15 12   99.40   -29 LegendNANA
09:00 -18.9 -21.2 82 14 13   99.32   -27 LegendNANA
10:00 -16.5 -19.3 79 16 14   99.23   -24 LegendNANA
11:00 -14.4 -18.5 71 17 22   99.05   -24 LegendNANA
12:00 -13.6 -17.6 71 18 21   98.93   -23 LegendNANA
13:00 -13.3 -14.9 88 17 22   98.77   -22 LegendNANA
14:00 -11.7 -13.7 85 18 17   98.65   -19 LegendNANA
15:00 -10.4 -12.8 82 17 16   98.58   -17 LegendNANA
16:00 -9.4 -13.6 71 17 19   98.54   -17 LegendNANA
17:00 -8.6 -13.0 71 19 20   98.51   -16 LegendNANA
18:00 -7.8 -12.2 71 19 15   98.49   -14 LegendNANA
19:00 -6.9 -11.0 72 22 8   98.48   -11 LegendNANA
20:00 -6.1 -9.9 75 21 8   98.48   -10 LegendNANA
21:00 -6.1 -8.9 80 19 5   98.52   -9 LegendNANA
22:00 -5.6 -7.1 89 27 9   98.53   -10 LegendNANA
23:00 -6.8 -8.1 90 28 7   98.57   -10 LegendNANA

Notes on Data Quality.

Legend

  • E = Estimated
  • M = Missing
  • NA = Not Available
  • ‡ = Partner data that is not subject to review by the National Climate Archives
Date modified: